Plymouth, NH

6:24 PM EST on November 20, 2017 (GMT -0500)
Plymouth

Weather History for K1P1 - July, 2012

Change the Weather History Date:

Monday, July 9, 2012

  Actual Average (KLCI) Record (KLCI)
Temperature  
Mean Temperature 62 °F -  
Max Temperature 76 °F 80 °F 94 °F (1988)
Min Temperature 48 °F 61 °F 53 °F (2012)
Degree Days  
Heating Degree Days 3    
Growing Degree Days 12 (Base 50)    
Moisture  
Dew Point 45 °F    
Average Humidity 56    
Maximum Humidity 97    
Minimum Humidity 22    
Precipitation  
Precipitation 0.00 in - - ()
Sea Level Pressure  
Sea Level Pressure 29.94 in    
Wind  
Wind Speed 4 mph (WNW)    
Max Wind Speed 16 mph    
Max Gust Speed 23 mph    
Visibility 10 miles    
Events      
Averages and records for this station are not official NWS values.
T = Trace of Precipitation, MM = Missing Value Source: NWS Daily Summary

Daily Weather History Graph

Daily Weather History Graph

Search for Another Location

Airport or City:

Trip Planner

Search our weather history database for the weather conditions in past years. The results will help you decide how hot, cold, wet, or windy it might be!

Date:

Astronomy

Jul. 09, 2012 Rise Set
Actual Time 5:14 AM EDT 8:29 PM EDT
Civil Twilight 4:39 AM EDT 9:05 PM EDT
Nautical Twilight 3:53 AM EDT 9:50 PM EDT
Astronomical Twilight 2:57 AM EDT 10:46 PM EDT
Moon 11:28 PM EDT (7/9) 11:53 AM EDT (7/9)
Length of Visible Light 16h 26m
Length of Day
15h 15m
Waning Gibbous, 64% of the Moon is Illuminated
Jul 9
Waning Gibbous
Jul 10
Last Quarter
Jul 19
New
Jul 26
First Quarter
Aug 1
Full

Hourly Weather History & Observations

Time (EDT) Temp. Dew Point Humidity Pressure Visibility Wind Dir Wind Speed Gust Speed Precip Events Conditions
12:15 AM 58.3 °F 50.4 °F 75% 29.89 in 10.0 mi Calm Calm - N/A   Clear
12:35 AM 56.3 °F 50.2 °F 80% 29.89 in 10.0 mi Calm Calm - N/A   Clear
12:55 AM 58.1 °F 50.2 °F 75% 29.89 in 10.0 mi NW 3.5 mph - N/A   Clear
1:15 AM 58.1 °F 50.2 °F 75% 29.89 in 10.0 mi NW 3.5 mph - N/A   Clear
1:35 AM 54.7 °F 50.4 °F 85% 29.89 in 10.0 mi Calm Calm - N/A   Clear
1:55 AM 53.8 °F 50.7 °F 89% 29.89 in 10.0 mi Calm Calm - N/A   Clear
2:15 AM 53.4 °F 50.9 °F 91% 29.89 in 10.0 mi Calm Calm - N/A   Clear
2:35 AM 52.5 °F 50.5 °F 93% 29.89 in 10.0 mi Calm Calm - N/A   Clear
2:55 AM 51.6 °F 50.2 °F 95% 29.90 in 10.0 mi Calm Calm - N/A   Clear
3:15 AM 52.2 °F 50.2 °F 93% 29.90 in 10.0 mi Calm Calm - N/A   Clear
3:35 AM 52.0 °F 48.9 °F 89% 29.90 in 10.0 mi Calm Calm - N/A   Clear
3:55 AM 49.6 °F 47.7 °F 93% 29.90 in 10.0 mi Calm Calm - N/A   Clear
4:35 AM 49.5 °F 48.4 °F 96% 29.91 in 10.0 mi Calm Calm - N/A   Clear
4:55 AM 48.6 °F 47.5 °F 96% 29.92 in 10.0 mi Calm Calm - N/A   Clear
6:35 AM 51.1 °F 50.2 °F 97% 29.94 in 10.0 mi Calm Calm - N/A   Clear
7:15 AM 54.3 °F 50.9 °F 88% 29.95 in 10.0 mi Calm Calm - N/A   Clear
7:35 AM 55.4 °F 50.2 °F 83% 29.96 in 10.0 mi Calm Calm - N/A   Clear
7:55 AM 57.4 °F 51.4 °F 81% 29.96 in 10.0 mi Calm Calm - N/A   Clear
8:15 AM 60.4 °F 52.5 °F 75% 29.96 in 10.0 mi Calm Calm - N/A   Clear
8:35 AM 64.8 °F 51.4 °F 62% 29.96 in 10.0 mi West 6.9 mph - N/A   Clear
8:55 AM 66.6 °F 49.6 °F 54% 29.96 in 10.0 mi West 6.9 mph - N/A   Clear
9:15 AM 67.3 °F 49.5 °F 53% 29.95 in 10.0 mi West 9.2 mph - N/A   Clear
9:35 AM 68.2 °F 50.0 °F 52% 29.95 in 10.0 mi West 6.9 mph - N/A   Clear
9:55 AM 69.4 °F 48.9 °F 48% 29.94 in 10.0 mi WNW 9.2 mph - N/A   Clear
10:15 AM 69.8 °F 49.5 °F 48% 29.94 in 10.0 mi West 8.1 mph - N/A   Clear
10:35 AM 71.1 °F 48.0 °F 44% 29.94 in 10.0 mi WNW 8.1 mph - N/A   Clear
10:55 AM 72.0 °F 44.6 °F 37% 29.94 in 10.0 mi NW 13.8 mph 18.4 mph N/A   Clear
11:15 AM 73.2 °F 46.2 °F 38% 29.94 in 10.0 mi WNW 9.2 mph - N/A   Clear
11:35 AM 73.9 °F 45.1 °F 36% 29.94 in 10.0 mi WNW 12.7 mph 23.0 mph N/A   Scattered Clouds
12:15 PM 74.5 °F 44.6 °F 34% 29.93 in 10.0 mi NW 8.1 mph 23.0 mph N/A   Clear
12:35 PM 74.3 °F 43.9 °F 34% 29.94 in 10.0 mi NW 16.1 mph 21.9 mph N/A   Clear
12:55 PM 74.5 °F 41.7 °F 31% 29.94 in 10.0 mi West 12.7 mph 23.0 mph N/A   Clear
1:15 PM 74.8 °F 42.4 °F 31% 29.93 in 10.0 mi West 11.5 mph 17.3 mph N/A   Clear
1:35 PM 75.2 °F 44.6 °F 34% 29.93 in 10.0 mi West 11.5 mph 18.4 mph N/A   Clear
1:55 PM 75.2 °F 44.4 °F 33% 29.93 in 10.0 mi West 12.7 mph 20.7 mph N/A   Clear
2:15 PM 75.2 °F 44.2 °F 33% 29.93 in 10.0 mi West 8.1 mph 17.3 mph N/A   Clear
2:35 PM 75.2 °F 43.5 °F 32% 29.93 in 10.0 mi West 11.5 mph 19.6 mph N/A   Clear
2:55 PM 75.9 °F 43.9 °F 32% 29.93 in 10.0 mi West 9.2 mph 21.9 mph N/A   Clear
3:15 PM 75.4 °F 42.1 °F 30% 29.93 in 10.0 mi West 6.9 mph 19.6 mph N/A   Scattered Clouds
3:35 PM 75.6 °F 41.0 °F 29% 29.93 in 10.0 mi West 10.4 mph 21.9 mph N/A   Scattered Clouds
3:55 PM 75.9 °F 40.3 °F 28% 29.93 in 10.0 mi NW 11.5 mph 17.3 mph N/A   Clear
4:15 PM 75.9 °F 39.4 °F 27% 29.93 in 10.0 mi WNW 9.2 mph 18.4 mph N/A   Clear
4:35 PM 76.1 °F 38.1 °F 25% 29.93 in 10.0 mi NW 12.7 mph 18.4 mph N/A   Clear
4:55 PM 76.1 °F 35.4 °F 23% 29.93 in 10.0 mi NW 8.1 mph 17.3 mph N/A   Clear
5:15 PM 75.6 °F 35.1 °F 23% 29.93 in 10.0 mi NW 11.5 mph 17.3 mph N/A   Clear
5:35 PM 75.6 °F 36.3 °F 24% 29.93 in 10.0 mi NW 10.4 mph 16.1 mph N/A   Clear
5:55 PM 75.2 °F 35.6 °F 24% 29.93 in 10.0 mi NW 12.7 mph 16.1 mph N/A   Clear
6:15 PM 74.5 °F 34.5 °F 23% 29.94 in 10.0 mi WNW 9.2 mph - N/A   Clear
6:35 PM 74.3 °F 33.4 °F 22% 29.94 in 10.0 mi WNW 9.2 mph - N/A   Clear
6:55 PM 73.6 °F 34.7 °F 24% 29.94 in 10.0 mi NW 9.2 mph - N/A   Clear
7:15 PM 72.9 °F 35.6 °F 26% 29.94 in 10.0 mi WNW 6.9 mph - N/A   Clear
7:35 PM 71.6 °F 35.8 °F 27% 29.95 in 10.0 mi WNW 4.6 mph - N/A   Clear
7:55 PM 70.3 °F 37.9 °F 31% 29.95 in 10.0 mi Calm Calm - N/A   Clear
8:15 PM 67.3 °F 40.8 °F 38% 29.95 in 10.0 mi NW 3.5 mph - N/A   Clear
8:55 PM 63.0 °F 44.4 °F 51% 29.97 in 10.0 mi WNW 3.5 mph - N/A   Clear
9:15 PM 60.8 °F 45.9 °F 58% 29.98 in 10.0 mi Calm Calm - N/A   Clear
9:35 PM 56.5 °F 48.7 °F 75% 29.99 in 10.0 mi Calm Calm - N/A   Clear
9:55 PM 55.6 °F 48.0 °F 76% 30.00 in 10.0 mi Calm Calm - N/A   Clear
10:15 PM 54.0 °F 48.0 °F 80% 30.00 in 10.0 mi Calm Calm - N/A   Clear
10:35 PM 52.7 °F 47.3 °F 82% 30.00 in 10.0 mi Calm Calm - N/A   Clear
10:55 PM 52.2 °F 47.3 °F 83% 30.00 in 10.0 mi Calm Calm - N/A   Clear
11:15 PM 51.8 °F 46.9 °F 83% 30.01 in 10.0 mi Calm Calm - N/A   Clear
11:35 PM 51.1 °F 47.3 °F 87% 30.01 in 10.0 mi Calm Calm - N/A   Clear
11:55 PM 50.0 °F 46.8 °F 89% 30.02 in 10.0 mi Calm Calm - N/A   Clear